Temperature
21 20 20 22 26 29 29 29 29 28 28 26 25 26 27 26 26 25 21 21 20 20 19 20 19 19 19 19 19 20 20 20 19 19 19 19 19 19 19 19 18 18 18 18 18 18 18 18 18
20 20 21 25 29 29 29 29 29 28 27 25 25 25 25 25 23 21 20 20 20 20 19 19 19 19 19 19 19 19 20 19 19 19 19 19 19 19 19 19 18 18 18 18 18 18 18 18 18
20 21 24 29 29 29 29 29 28 27 26 25 26 25 25 24 21 20 20 20 20 19 19 19 19 19 19 19 19 19 19 19 19 19 19 19 19 19 18 18 18 18 18 18 18 18 18 18 18
21 23 26 29 29 29 29 29 28 28 26 25 26 25 23 21 21 20 19 19 20 19 19 19 19 19 19 19 19 19 19 19 19 19 19 19 19 18 18 18 18 18 18 18 18 18 18 18 18
22 26 29 30 29 29 29 29 28 28 27 26 26 26 23 20 20 19 19 19 20 20 19 19 19 19 19 19 19 19 19 19 19 19 19 19 19 18 18 18 18 18 18 18 18 18 18 18 18
26 28 29 29 29 29 29 28 28 28 27 26 25 25 22 19 19 20 20 20 20 20 19 18 19 19 19 19 19 19 19 19 19 19 19 19 18 18 18 18 18 18 18 18 18 18 18 18 18
27 29 29 29 29 29 29 27 28 28 27 26 25 25 22 19 19 19 19 20 20 20 19 18 18 19 19 19 19 19 19 19 19 19 19 18 18 18 18 18 18 18 18 18 18 18 18 18 18
26 29 29 29 29 29 29 27 27 27 26 24 24 25 23 19 19 19 19 19 19 19 19 18 18 18 18 18 19 19 19 19 19 19 18 18 18 18 18 18 18 18 18 18 18 18 18 18 18
25 28 29 29 29 30 29 28 26 25 25 23 23 23 22 19 19 19 19 19 19 19 19 18 18 18 18 18 18 18 18 18 18 18 18 18 17 17 17 17 18 17 17 17 17 17 17 18 18
26 29 29 29 29 30 29 28 27 26 25 24 23 21 20 19 19 19 19 19 18 18 18 18 18 18 18 18 18 18 18 18 18 17 17 17 17 17 17 17 17 17 17 17 17 17 17 17 17
28 28 29 29 28 28 28 28 27 27 27 25 24 22 20 19 19 19 19 19 19 18 18 18 18 18 18 18 18 18 18 18 17 17 17 17 17 17 17 17 17 17 17 17 17 17 17 17 17
28 29 28 28 28 28 28 27 27 26 26 23 22 21 20 19 19 19 19 19 18 18 18 18 18 18 18 18 18 18 18 17 17 17 17 17 17 17 17 17 16 16 16 16 16 16 16 16 16
28 29 28 28 27 27 27 27 26 25 24 22 21 20 20 20 19 19 19 19 18 18 18 18 18 18 18 18 18 18 17 17 17 17 17 17 17 17 16 16 16 16 16 16 16 16 16 16 16
29 28 28 28 27 26 27 27 26 25 23 22 21 21 20 20 19 19 18 18 18 18 18 18 18 18 18 18 18 18 17 17 17 17 17 17 17 16 16 16 16 16 15 15 15 15 15 16 16
28 29 29 29 28 27 27 27 27 24 22 22 21 21 20 19 19 18 18 18 18 18 18 18 18 18 18 18 18 17 17 17 17 17 17 16 16 16 16 15 15 15 15 15 15 15 15 15 15
29 29 30 30 28 27 27 28 26 23 22 22 21 20 19 18 18 18 18 18 18 18 18 18 18 18 18 18 18 17 17 17 17 16 16 16 16 16 16 15 15 15 15 15 15 15 15 15 15
30 30 30 30 29 28 27 27 26 23 23 22 21 20 19 18 18 18 18 18 18 18 18 18 18 18 18 17 17 17 17 17 16 16 16 16 16 16 15 15 15 15 14 14 14 14 14 15 14
29 29 29 29 29 27 27 27 26 23 23 22 21 20 20 19 18 18 18 18 18 18 18 18 18 18 17 17 17 17 17 16 16 16 16 15 15 15 15 14 14 14 14 14 14 13 14 14 14
29 29 29 29 28 27 27 27 26 24 23 23 22 21 20 19 18 18 18 18 18 18 18 18 18 18 17 17 17 17 16 16 16 16 16 15 15 15 15 14 14 14 14 13 13 13 14 14 14
29 29 29 29 27 27 27 27 27 25 23 23 22 21 20 19 18 18 18 18 18 18 18 18 18 18 17 17 17 17 16 16 16 16 16 15 15 15 14 14 14 14 13 13 13 13 13 14 13
29 29 29 28 28 27 27 28 26 25 23 22 22 21 21 20 19 18 18 18 18 18 18 17 18 18 17 17 17 17 17 16 16 16 15 15 15 14 14 14 14 13 13 13 13 12 12 14 13
29 29 28 28 28 28 27 27 27 26 25 24 23 22 21 20 19 19 18 18 18 18 18 18 18 18 18 18 17 17 17 16 16 16 15 15 15 14 14 14 14 13 13 13 13 13 12 13 14
29 28 28 28 28 28 28 27 28 26 26 25 24 23 22 21 20 19 19 18 18 18 18 18 18 18 18 17 17 17 17 16 16 16 15 15 15 14 14 14 13 13 13 13 13 12 12 12 13
28 28 28 27 28 27 27 27 27 27 27 26 25 23 22 22 21 20 19 19 18 18 18 18 18 18 18 18 17 17 16 16 16 16 15 15 14 14 14 14 13 13 13 13 13 12 12 12 12
28 28 28 27 27 27 27 27 27 28 27 27 25 24 23 22 21 20 19 19 18 18 18 18 18 18 18 18 17 17 17 16 16 16 15 15 15 14 14 14 13 13 13 13 12 12 12 12 12
28 28 27 26 27 28 28 27 28 28 27 26 25 24 23 22 21 20 20 19 19 18 18 18 18 18 18 18 18 17 17 16 16 16 15 15 15 14 14 14 13 13 13 13 13 12 12 12 12
28 28 29 28 28 27 28 28 28 27 27 26 25 25 24 23 22 21 20 20 19 19 18 18 18 18 18 18 18 17 17 17 16 16 16 15 15 14 14 14 13 13 13 13 13 12 12 12 12
28 29 28 27 26 26 27 28 28 28 27 27 26 25 24 23 23 22 21 20 20 19 19 18 18 19 18 18 18 18 17 17 17 16 16 16 15 15 14 14 13 13 13 13 13 12 12 12 12
27 27 27 28 27 26 26 27 29 28 27 27 27 26 25 24 23 22 21 21 20 20 19 18 19 19 18 18 18 18 18 17 17 17 16 16 16 15 15 14 14 13 13 13 13 12 12 12 12
28 28 27 26 26 26 27 28 28 28 28 27 27 26 25 24 24 23 22 21 21 20 20 19 19 19 19 19 19 18 18 18 17 17 17 16 16 15 15 14 14 14 13 13 13 13 12 12 12
Wind_Speed
10 7 5 4 5 4 1 2 1 1 1 2 2 1 1 1 0 4 8 16 19 20 21 20 17 16 16 16 16 16 15 15 14 14 13 12 11 11 10 9 9 9 10 10 10 10 10 10 10
5 4 5 5 6 4 1 1 0 0 2 4 4 2 1 2 3 7 10 16 20 20 21 20 19 17 16 16 16 15 15 14 14 13 12 11 10 10 10 9 9 9 9 9 9 9 10 9 9
5 6 5 5 4 4 2 2 1 2 3 4 2 1 0 2 5 7 11 19 20 19 20 20 20 18 17 16 15 15 14 14 13 12 12 11 10 9 9 9 8 8 8 8 9 9 8 8 8
4 5 5 6 4 1 2 1 1 4 4 4 3 2 3 4 4 8 16 20 20 18 19 21 19 18 17 16 15 15 14 13 12 11 11 10 9 8 8 8 8 8 7 7 8 7 7 7 7
5 5 7 5 2 1 1 1 3 5 4 4 4 2 4 4 6 14 18 20 20 19 18 21 19 18 17 16 15 14 13 13 12 11 10 9 8 8 7 7 7 7 6 6 7 7 6 6 5
4 5 6 2 1 1 1 0 4 5 4 3 3 3 4 5 10 16 18 18 18 18 18 20 18 17 16 16 15 14 13 12 11 10 9 8 7 6 6 6 6 5 5 5 5 5 5 5 4
6 4 3 2 1 1 2 0 3 3 5 4 3 3 5 8 11 15 17 17 17 17 16 18 18 17 15 14 14 13 12 11 10 9 8 7 7 6 5 5 4 4 4 4 4 4 3 3 3
5 4 3 1 2 0 2 1 1 3 2 2 3 4 6 11 13 14 15 15 15 15 15 15 16 16 16 15 14 12 11 10 10 9 7 7 7 6 5 6 5 3 3 3 3 2 2 2 2
4 5 1 1 3 2 0 3 2 1 3 4 3 0 7 16 16 15 15 14 14 13 12 13 14 13 13 13 14 13 11 10 10 9 8 7 6 6 6 4 4 2 2 2 2 3 3 3 5
5 4 3 4 6 6 4 5 3 5 6 6 6 6 12 16 17 17 17 17 16 15 14 12 12 12 12 11 12 10 10 10 8 7 7 5 3 2 2 7 4 3 2 3 3 3 5 7 5
5 5 5 5 6 8 7 6 5 7 7 6 7 11 15 17 16 16 16 16 16 15 13 13 11 11 11 8 9 7 7 7 7 6 5 3 3 3 2 2 4 3 3 3 4 5 4 3 2
6 7 8 8 7 8 7 6 5 7 3 1 4 10 15 17 17 17 16 15 14 14 13 12 12 10 9 8 7 7 7 6 5 6 4 4 2 2 1 1 1 1 0 0 1 1 1 2 3
9 8 7 7 7 6 6 6 5 5 2 3 6 11 14 15 15 14 13 13 14 13 13 12 11 10 9 7 6 6 5 5 5 5 4 3 3 2 2 1 1 1 1 1 1 1 1 3 3
6 9 9 8 5 4 5 5 5 3 3 5 8 11 13 13 14 13 13 13 14 14 12 12 12 10 9 7 5 5 6 5 5 5 5 3 3 2 2 2 1 1 2 3 2 2 2 2 2
9 10 8 4 3 2 5 6 5 3 5 6 8 10 11 12 12 13 13 12 12 12 12 11 11 10 9 7 7 6 6 6 5 6 5 4 3 3 2 2 1 2 2 1 1 1 1 2 2
8 8 6 2 2 2 6 5 3 5 6 7 8 9 10 11 12 11 11 11 11 10 10 10 9 10 9 8 7 7 7 7 6 7 7 5 4 3 2 2 2 2 1 1 1 1 2 2 2
6 7 8 3 2 3 7 6 3 5 6 7 9 9 10 11 11 11 11 11 10 10 10 9 8 9 9 8 7 7 7 7 7 7 6 6 5 4 2 2 3 1 1 1 2 2 3 2 3
9 10 10 8 1 5 8 7 2 6 7 8 9 9 10 11 11 11 10 10 10 10 10 9 9 9 10 8 8 7 7 7 7 6 6 6 6 5 3 3 3 1 1 1 2 2 2 3 3
11 12 12 8 2 6 8 8 4 6 8 9 9 10 11 11 11 11 10 10 11 11 11 11 11 10 9 8 9 9 8 7 6 6 7 7 6 5 2 2 3 1 2 2 2 1 0 2 3
10 12 10 5 1 5 8 9 3 6 9 9 9 10 11 11 12 12 12 12 12 12 12 12 12 11 11 9 8 7 7 7 6 6 7 7 6 6 4 2 2 2 2 2 2 2 2 2 2
10 10 11 10 6 6 8 5 4 5 7 8 9 10 11 13 15 14 13 13 13 13 13 12 12 12 11 11 9 7 7 6 6 7 6 7 7 6 4 4 2 2 1 2 0 1 2 2 2
10 6 8 8 9 6 4 7 2 4 6 9 10 12 13 14 14 14 14 14 15 14 13 12 12 12 12 12 11 11 9 7 7 7 7 7 7 7 6 5 4 2 1 1 2 1 1 2 2
7 4 7 8 8 8 3 6 2 4 4 7 10 12 14 15 15 15 15 15 15 15 14 13 13 13 12 12 11 11 9 7 6 7 8 7 7 7 6 6 5 4 2 2 1 1 1 1 2
3 5 6 7 8 5 4 6 3 1 2 4 9 12 13 14 15 15 15 15 15 14 14 14 14 13 13 13 12 11 9 8 8 8 8 8 6 6 7 6 5 5 3 3 3 2 2 1 1
7 8 7 5 4 3 2 5 3 2 1 3 8 12 13 14 14 15 16 16 16 16 16 15 16 15 15 14 13 12 11 10 10 9 8 7 6 6 7 6 6 5 4 4 4 4 2 2 2
7 8 7 7 7 7 1 3 3 2 2 3 6 10 13 14 14 15 16 17 17 18 17 17 17 16 16 15 14 12 12 10 9 9 7 7 6 5 6 7 7 6 6 5 5 5 4 3 4
5 7 7 9 8 8 4 2 1 4 5 6 7 10 12 14 15 16 16 17 17 18 18 18 18 17 16 16 15 13 13 11 9 9 8 7 6 6 7 7 7 7 6 6 5 5 4 4 5
6 5 5 7 6 7 5 4 2 2 5 7 8 10 12 13 15 15 16 17 17 17 17 17 17 17 17 16 15 13 13 12 10 10 9 8 8 7 8 8 8 7 7 7 7 6 6 6 6
7 7 7 7 7 8 7 3 4 0 3 6 8 10 12 14 15 15 15 16 16 16 17 17 17 17 16 16 15 14 13 12 12 10 10 10 9 9 9 9 8 8 8 8 7 7 6 7 7
9 9 8 8 7 7 8 4 5 1 2 4 5 8 11 13 14 15 15 16 16 17 17 17 17 17 17 16 15 14 13 13 12 12 11 11 10 10 10 9 9 9 9 9 9 9 8 8 8
Wind_Direction
191 212 243 248 242 235 22 73 5 147 138 115 137 181 164 90 69 99 127 152 149 150 148 154 154 151 148 144 138 134 132 130 128 126 124 123 120 118 115 110 105 101 97 95 91 88 87 87 87
196 226 241 244 260 260 103 84 37 76 100 139 154 166 150 95 65 111 144 151 152 150 151 157 153 153 149 144 139 136 135 132 130 128 125 123 120 118 115 110 105 101 99 98 95 91 88 85 84
208 242 260 252 262 301 21 83 66 130 155 176 170 162 41 91 122 139 149 153 152 150 151 149 155 155 152 148 143 141 139 137 134 132 129 125 121 117 114 110 108 103 99 97 97 94 91 87 84
224 232 241 252 260 9 345 23 172 178 177 203 199 145 104 71 127 141 148 154 151 151 154 150 158 156 154 150 148 145 143 141 138 135 133 130 126 120 116 113 111 106 103 100 96 95 92 88 83
243 255 242 235 246 40 324 318 206 203 192 191 200 152 103 79 117 137 150 155 154 155 154 150 158 156 155 153 151 149 146 142 140 138 136 132 127 124 122 116 113 111 109 108 105 100 96 89 83
238 248 249 246 117 91 67 196 207 218 206 186 195 172 97 112 135 145 153 159 157 155 154 149 157 157 156 154 152 150 147 145 143 142 142 138 132 127 124 123 121 120 117 115 114 110 104 94 82
271 264 267 285 283 173 65 122 225 222 214 204 202 167 125 136 142 150 155 160 159 158 154 155 161 159 157 153 152 150 149 148 146 145 143 141 137 133 132 131 133 131 125 124 126 124 119 111 93
285 265 222 224 271 35 86 205 281 251 208 154 200 196 153 151 150 151 154 159 161 160 159 160 163 161 163 159 154 152 150 151 150 148 148 146 149 151 153 172 144 146 149 144 144 149 153 143 142
263 250 237 353 318 346 31 247 213 236 188 189 198 172 129 146 152 153 157 161 162 162 162 164 161 161 164 161 154 158 157 156 160 159 156 180 183 167 175 125 124 152 156 154 170 178 179 202 185
245 268 16 345 317 315 298 272 246 215 209 207 186 149 142 153 160 163 166 167 166 166 168 165 166 162 166 162 156 166 166 160 176 158 167 182 156 162 139 116 137 156 165 178 175 196 203 230 215
246 279 320 307 301 298 284 264 243 241 237 224 200 168 162 164 169 171 172 172 169 169 171 167 166 165 169 160 162 162 157 155 164 155 163 154 158 161 170 157 165 181 203 215 173 213 237 245 276
255 270 281 291 303 287 277 268 250 247 278 89 177 170 172 174 176 176 175 175 170 172 173 171 166 169 170 165 161 162 163 160 156 149 171 154 151 156 139 171 160 222 253 287 264 251 250 266 258
250 278 287 288 285 281 265 254 258 253 238 167 169 174 180 180 178 177 173 173 171 174 175 171 170 168 165 163 171 160 157 151 147 146 143 155 160 149 125 89 33 342 350 250 271 281 277 272 258
288 288 285 280 273 251 248 247 238 229 175 170 171 175 180 180 177 174 175 175 175 178 175 172 174 169 166 165 166 153 153 145 145 142 135 149 136 125 124 126 80 37 9 14 339 338 294 287 295
278 277 266 232 230 226 249 238 227 171 172 171 171 170 173 175 175 178 178 175 176 176 172 171 174 170 168 166 168 159 159 153 144 134 135 140 136 125 121 107 108 49 36 41 346 327 298 284 277
252 259 279 139 208 209 254 293 123 160 182 179 174 172 174 173 176 176 173 175 173 169 164 171 176 168 167 166 167 160 157 151 147 144 141 137 125 126 130 105 81 58 13 1 11 315 314 331 307
234 302 323 336 200 235 255 294 133 173 192 186 181 178 177 175 174 175 174 174 173 172 166 170 171 166 166 163 160 154 149 150 148 147 145 141 139 132 127 89 76 68 26 5 337 30 330 335 331
325 318 315 321 293 253 266 283 230 184 201 196 188 185 184 183 178 171 176 175 175 176 174 173 170 168 165 159 153 152 152 155 155 151 144 148 143 140 132 115 97 37 51 39 35 21 359 326 323
303 301 305 322 331 269 277 284 262 196 203 199 193 190 188 183 174 169 176 181 181 179 176 176 173 170 167 165 167 165 166 164 160 158 152 155 149 145 150 121 122 70 71 38 26 341 345 339 338
292 296 305 318 304 279 294 287 251 203 207 205 198 193 187 177 170 173 181 183 187 185 179 176 176 175 178 174 169 169 160 165 159 156 153 163 162 165 167 156 157 122 114 101 58 1 334 11 357
299 306 317 318 306 246 289 273 174 185 202 204 203 194 187 181 177 179 185 185 184 185 183 181 178 177 181 171 164 157 155 165 165 168 170 173 175 178 174 177 177 163 217 115 96 336 340 345 14
300 330 306 298 291 310 313 316 134 175 197 203 202 195 190 184 183 182 184 187 187 185 182 181 175 177 177 174 177 178 183 183 180 180 173 174 182 184 183 188 188 204 216 153 210 89 318 310 334
305 317 291 285 286 291 280 301 61 164 210 199 196 194 192 187 185 185 187 188 189 184 181 179 177 179 179 184 183 188 192 186 176 177 167 182 180 189 191 194 196 200 213 191 227 170 285 291 324
255 256 251 248 263 283 350 307 355 76 252 187 184 189 189 186 185 187 187 186 186 183 181 179 179 181 182 187 189 195 192 186 179 184 178 189 185 191 192 198 199 205 207 194 204 208 208 288 327
234 271 280 275 271 330 34 295 353 41 193 188 179 183 185 183 183 185 185 185 185 184 184 183 182 184 186 189 192 195 195 190 190 194 190 199 194 193 187 196 198 204 202 203 206 211 235 226 235
244 274 289 306 316 325 260 306 18 99 150 175 176 177 181 184 185 186 188 187 187 186 185 185 186 188 188 192 195 196 196 200 198 198 198 199 206 198 179 192 197 201 201 204 205 223 218 223 234
246 255 291 285 285 290 305 311 166 153 169 173 175 177 182 185 186 187 188 188 189 189 188 188 189 190 191 195 194 196 198 205 197 187 199 199 199 191 184 194 198 199 201 208 214 231 226 223 234
266 269 252 273 294 297 299 294 346 157 173 175 181 185 184 185 187 189 189 191 191 192 190 191 191 193 193 195 196 197 197 199 196 195 196 197 196 195 192 197 200 200 201 206 219 225 216 227 233
205 222 248 269 282 291 302 325 50 71 186 184 185 188 186 187 187 187 188 190 191 192 190 191 193 195 196 198 197 199 197 197 196 196 196 196 198 196 201 202 203 205 206 207 215 232 222 228 234
241 240 233 256 265 262 286 304 86 80 189 185 187 185 187 187 186 185 185 186 189 192 193 194 196 197 198 197 196 198 197 197 198 199 199 197 199 201 204 206 208 211 212 212 217 227 228 231 236
Height
1525 1526 1527 1528 1521 1510 1510 1510 1508 1509 1511 1515 1517 1517 1516 1517 1519 1527 1529 1530 1534 1538 1541 1544 1547 1550 1553 1556 1558 1559 1561 1562 1563 1564 1565 1565 1566 1567 1567 1568 1568 1568 1568 1569 1569 1569 1570 1570 1570
1527 1527 1529 1525 1512 1512 1513 1509 1509 1510 1513 1517 1518 1519 1518 1520 1524 1525 1527 1530 1534 1538 1542 1545 1548 1551 1554 1557 1559 1560 1562 1563 1564 1565 1566 1567 1568 1568 1569 1569 1569 1570 1570 1570 1571 1571 1571 1572 1572
1527 1528 1527 1515 1509 1510 1510 1508 1510 1512 1515 1517 1517 1519 1520 1522 1525 1526 1527 1530 1535 1539 1543 1545 1549 1552 1555 1558 1560 1561 1563 1564 1565 1566 1567 1568 1569 1570 1570 1571 1571 1571 1572 1572 1572 1573 1573 1573 1574
1529 1528 1524 1513 1509 1508 1508 1508 1511 1512 1516 1517 1517 1518 1522 1525 1525 1526 1527 1532 1536 1540 1544 1547 1550 1553 1556 1558 1560 1562 1564 1565 1566 1567 1568 1569 1570 1571 1572 1572 1572 1573 1573 1574 1574 1574 1575 1575 1575
1529 1524 1514 1509 1508 1508 1508 1510 1511 1511 1513 1516 1517 1518 1522 1525 1525 1526 1529 1534 1538 1542 1546 1548 1551 1554 1557 1559 1561 1563 1565 1566 1567 1568 1569 1570 1571 1572 1573 1573 1574 1574 1574 1575 1575 1576 1576 1576 1577
1526 1519 1511 1510 1509 1508 1508 1511 1511 1511 1514 1517 1518 1518 1523 1526 1526 1529 1532 1536 1540 1543 1547 1549 1551 1554 1557 1560 1562 1564 1565 1567 1568 1569 1570 1571 1572 1573 1574 1574 1575 1575 1576 1576 1576 1577 1577 1578 1578
1524 1514 1510 1510 1510 1508 1509 1512 1511 1512 1514 1517 1518 1519 1523 1526 1528 1530 1534 1538 1541 1545 1548 1550 1552 1555 1557 1560 1562 1564 1566 1567 1569 1570 1571 1572 1573 1574 1574 1575 1576 1576 1576 1577 1577 1578 1578 1578 1579
1524 1515 1509 1508 1510 1507 1509 1512 1513 1513 1515 1518 1519 1518 1522 1526 1528 1531 1535 1539 1542 1546 1548 1550 1554 1556 1558 1560 1562 1564 1566 1568 1569 1571 1572 1573 1574 1574 1575 1576 1576 1577 1577 1577 1578 1578 1578 1579 1579
1525 1516 1509 1507 1508 1506 1508 1510 1513 1515 1516 1518 1519 1520 1522 1524 1527 1531 1534 1538 1542 1545 1548 1551 1554 1556 1559 1562 1563 1565 1566 1568 1570 1571 1572 1574 1575 1576 1576 1577 1576 1577 1577 1578 1578 1578 1578 1579 1579
1522 1512 1508 1508 1508 1506 1508 1510 1511 1513 1514 1516 1518 1520 1522 1524 1527 1530 1533 1537 1540 1544 1547 1550 1553 1556 1559 1562 1563 1566 1568 1569 1571 1572 1573 1575 1575 1576 1577 1576 1576 1577 1577 1577 1578 1578 1578 1579 1580
1517 1512 1509 1509 1509 1509 1508 1508 1509 1510 1509 1512 1515 1519 1521 1523 1526 1529 1532 1536 1539 1543 1547 1550 1553 1555 1559 1561 1564 1566 1568 1569 1571 1572 1573 1574 1575 1576 1577 1577 1577 1577 1577 1578 1577 1578 1578 1579 1579
1516 1512 1511 1510 1509 1508 1507 1507 1508 1509 1510 1513 1515 1518 1520 1523 1525 1528 1531 1535 1539 1542 1546 1549 1552 1555 1558 1561 1563 1565 1568 1569 1571 1571 1572 1574 1575 1575 1576 1576 1577 1577 1577 1576 1577 1577 1577 1577 1577
1513 1509 1509 1508 1508 1507 1507 1506 1508 1508 1511 1512 1514 1517 1519 1522 1525 1528 1531 1535 1538 1541 1545 1548 1551 1554 1557 1559 1562 1565 1567 1569 1570 1571 1572 1573 1574 1575 1575 1575 1575 1576 1576 1576 1575 1576 1575 1575 1576
1509 1508 1506 1505 1505 1506 1506 1505 1507 1507 1510 1512 1514 1516 1518 1521 1524 1526 1530 1533 1537 1540 1544 1547 1550 1554 1556 1559 1561 1564 1566 1567 1570 1571 1571 1572 1574 1574 1574 1574 1574 1575 1575 1574 1574 1574 1574 1574 1574
1509 1505 1500 1500 1503 1504 1505 1502 1502 1507 1509 1511 1513 1515 1518 1521 1523 1526 1529 1532 1535 1539 1543 1546 1550 1553 1556 1559 1561 1563 1565 1567 1569 1570 1571 1572 1573 1573 1573 1574 1574 1574 1574 1573 1573 1573 1573 1573 1573
1503 1499 1495 1495 1500 1502 1504 1498 1500 1506 1508 1510 1512 1515 1517 1520 1523 1525 1528 1531 1535 1539 1542 1546 1550 1552 1555 1558 1560 1563 1565 1566 1568 1570 1570 1571 1572 1572 1573 1573 1573 1572 1573 1573 1572 1572 1573 1572 1572
1496 1496 1495 1493 1496 1499 1499 1496 1499 1504 1506 1508 1511 1513 1516 1518 1521 1524 1527 1530 1534 1537 1541 1545 1549 1551 1554 1557 1560 1562 1564 1566 1568 1569 1570 1571 1571 1571 1572 1572 1572 1572 1572 1572 1572 1572 1572 1572 1571
1500 1496 1494 1492 1492 1496 1496 1494 1496 1502 1504 1506 1509 1511 1514 1517 1519 1523 1526 1529 1532 1536 1540 1544 1547 1550 1554 1557 1559 1561 1563 1565 1567 1569 1569 1570 1570 1571 1572 1571 1571 1571 1571 1571 1570 1570 1569 1570 1570
1498 1497 1495 1490 1491 1494 1493 1492 1493 1498 1502 1504 1506 1509 1512 1515 1519 1521 1524 1527 1530 1534 1538 1542 1545 1549 1552 1555 1558 1560 1563 1565 1566 1568 1568 1569 1570 1570 1570 1571 1570 1570 1570 1570 1570 1570 1570 1570 1569
1495 1495 1490 1488 1491 1493 1491 1489 1489 1495 1499 1501 1504 1507 1510 1514 1517 1520 1523 1526 1529 1532 1535 1540 1544 1547 1551 1554 1557 1559 1562 1564 1566 1567 1567 1568 1569 1569 1570 1570 1570 1570 1569 1569 1569 1568 1570 1569 1568
1491 1492 1491 1491 1489 1489 1491 1485 1488 1492 1497 1500 1502 1505 1508 1512 1515 1518 1521 1524 1527 1531 1534 1539 1542 1546 1549 1552 1555 1558 1560 1562 1564 1565 1566 1567 1568 1568 1569 1569 1569 1569 1570 1569 1568 1568 1568 1569 1569
1492 1488 1490 1490 1491 1486 1491 1493 1484 1487 1492 1495 1499 1502 1505 1509 1513 1516 1519 1522 1526 1529 1533 1537 1540 1544 1547 1551 1554 1557 1559 1562 1563 1564 1565 1566 1566 1567 1567 1568 1568 1568 1569 1568 1568 1568 1568 1568 1569
1489 1490 1489 1488 1488 1488 1485 1489 1482 1483 1487 1489 1494 1498 1502 1506 1510 1513 1517 1520 1524 1528 1531 1535 1538 1542 1546 1549 1552 1555 1558 1560 1562 1563 1563 1564 1565 1565 1566 1566 1566 1566 1567 1567 1566 1566 1566 1567 1568
1489 1489 1487 1486 1484 1493 1488 1491 1485 1479 1482 1483 1489 1494 1499 1503 1507 1511 1515 1519 1522 1526 1529 1533 1536 1540 1543 1547 1550 1553 1556 1558 1560 1561 1561 1562 1563 1564 1564 1564 1565 1565 1566 1565 1565 1565 1565 1566 1565
1488 1491 1494 1495 1494 1491 1484 1488 1484 1476 1478 1481 1485 1491 1496 1500 1505 1509 1513 1516 1520 1523 1527 1530 1534 1537 1541 1544 1548 1551 1554 1556 1557 1559 1559 1561 1562 1562 1562 1563 1563 1563 1563 1563 1564 1564 1565 1565 1564
1484 1487 1499 1508 1501 1488 1482 1486 1476 1475 1479 1482 1485 1489 1493 1498 1502 1506 1510 1513 1517 1521 1524 1528 1531 1535 1538 1542 1545 1548 1551 1554 1556 1556 1558 1558 1560 1561 1560 1560 1561 1561 1562 1562 1562 1563 1563 1563 1563
1483 1483 1478 1487 1487 1492 1482 1477 1472 1474 1477 1481 1484 1487 1491 1495 1499 1503 1507 1511 1514 1518 1521 1525 1528 1532 1536 1539 1542 1545 1548 1551 1553 1553 1554 1556 1556 1558 1557 1558 1558 1559 1559 1560 1560 1562 1561 1561 1561
1480 1477 1484 1487 1500 1499 1487 1480 1476 1474 1475 1478 1481 1485 1489 1492 1496 1500 1504 1508 1512 1515 1519 1522 1525 1529 1533 1536 1539 1542 1545 1547 1549 1550 1551 1552 1553 1554 1555 1555 1556 1557 1557 1557 1558 1559 1559 1559 1559
1484 1484 1483 1481 1485 1496 1496 1484 1467 1471 1473 1475 1478 1482 1486 1489 1493 1497 1501 1505 1509 1513 1516 1519 1522 1526 1529 1533 1536 1539 1541 1543 1545 1547 1548 1549 1550 1551 1552 1553 1553 1554 1555 1555 1555 1556 1557 1556 1557
1474 1475 1479 1489 1489 1487 1488 1481 1466 1469 1471 1474 1477 1480 1484 1487 1491 1494 1498 1502 1506 1510 1513 1516 1519 1522 1525 1529 1532 1535 1537 1540 1542 1543 1545 1546 1547 1548 1549 1550 1550 1551 1552 1552 1552 1553 1554 1554 1554